This is the latest recevied weather packets stored in our database for station/object N3FWE. If no packets are shown the sender has not sent any weather packets the latest 1 day(s).
| Time | Temp. | Humidity | Pressure | Rain* | Wind** | Luminosity | Snow |
|---|---|---|---|---|---|---|---|
| 1778023815 | 26.11° C | 35% | 1008.4 hPa | 0 mm | 1.79 m/s, 197° | - | - |
| 1778023215 | 26.11° C | 35% | 1008.3 hPa | 0 mm | 2.68 m/s, 205° | - | - |
| 1778022615 | 26.67° C | 36% | 1008.4 hPa | 0 mm | 1.79 m/s, 209° | - | - |
| 1778022016 | 26.67° C | 37% | 1008.3 hPa | 0 mm | 1.79 m/s, 207° | - | - |
| 1778021415 | 26.67° C | 37% | 1008.2 hPa | 0 mm | 1.79 m/s, 208° | - | - |
| 1778020815 | 27.22° C | 38% | 1008.1 hPa | 0 mm | 1.34 m/s, 221° | - | - |
| 1778020216 | 27.22° C | 37% | 1008.1 hPa | 0 mm | 1.34 m/s, 228° | - | - |
| 1778019615 | 27.22° C | 37% | 1008.1 hPa | 0 mm | 1.79 m/s, 202° | - | - |
| 1778019015 | 27.78° C | 37% | 1008.2 hPa | 0 mm | 1.79 m/s, 269° | - | - |
| 1778018416 | 27.78° C | 37% | 1008.1 hPa | 0 mm | 2.68 m/s, 204° | - | - |
| 1778017815 | 27.78° C | 38% | 1008.1 hPa | 0 mm | 1.79 m/s, 213° | - | - |
| 1778017215 | 27.78° C | 37% | 1008 hPa | 0 mm | 2.24 m/s, 173° | - | - |
| 1778016615 | 27.78° C | 36% | 1008.1 hPa | 0 mm | 1.79 m/s, 217° | - | - |
| 1778016015 | 27.78° C | 36% | 1008 hPa | 0 mm | 3.13 m/s, 165° | - | - |
| 1778015415 | 27.78° C | 36% | 1008 hPa | 0 mm | 2.68 m/s, 203° | - | - |
| 1778014816 | 28.33° C | 35% | 1007.9 hPa | 0 mm | 2.68 m/s, 219° | - | - |
| 1778014215 | 28.33° C | 36% | 1007.9 hPa | 0 mm | 2.24 m/s, 193° | - | - |
| 1778013615 | 28.33° C | 37% | 1008.2 hPa | 0 mm | 2.68 m/s, 209° | - | - |
| 1778013015 | 27.78° C | 37% | 1008 hPa | 0 mm | 3.13 m/s, 229° | - | - |
| 1778012415 | 27.78° C | 37% | 1008 hPa | 0 mm | 2.68 m/s, 186° | - | - |
| 1778011815 | 27.78° C | 36% | 1008 hPa | 0 mm | 2.24 m/s, 199° | - | - |
| 1778011215 | 28.33° C | 38% | 1008.1 hPa | 0 mm | 2.68 m/s, 176° | - | - |
| 1778010615 | 28.33° C | 38% | 1008.2 hPa | 0 mm | 2.24 m/s, 165° | - | - |
| 1778010015 | 28.33° C | 36% | 1008.2 hPa | 0 mm | 2.24 m/s, 186° | - | - |
| 1778009415 | 28.89° C | 36% | 1008.2 hPa | 0 mm | 3.13 m/s, 186° | - | - |
* Rain latest hour (hover to see other rain measurements)
** Current wind speed in m/s (hover to see current wind gust speed)